loading
|

TITAN 3C TRANSTAGE R/B, 2222

Orbit data source: Space-Track

TITAN 3C TRANSTAGE R/B, 2222 is space debris originally from a launch on Thu, 16 Jun 1966 UTC launched from the Air Force Eastern Test Range (AFETR). Debris objects in space refer to the collection of defunct objects orbiting the Earth. Examples of debris include non-operational satellites, rocket bodies, and fragments generated from explosions, collisions, or faulty payload assembly.

Next visibility unknown
Next conjunction unknown
Loading greatness...
TITAN 3C TRANSTAGE R/B details
Identifier
2222, 1966-053J
Orbit
Active
Last TLE update1 day ago
Origin
Flag of USUSAF SSD (US)
ManufacturerMartin Marietta
MissionSpacecraft
Bus & MotorTRANSTAGE, Unknown motor
Mass2,050 kg wet, 2,050 kg dry
Launch date (UTC)
1966-06-16 (58 years ago)
Launch vehicleUnknown
Launch site
Air Force Eastern Test Range (AFETR)
Object type
Payload
Rocket body
Debris
Shape & HBRCyl + 2 Nozzle, 4.6 m
Radar Cross Section14.974 m², Large (>1 m²)

Expand to show TLE details & history

TLE from 1 day ago
0 TITAN 3C TRANSTAGE R/B
1 02222U 66053J   24285.75568951 -.00000078  00000-0  00000-0 0  9991
2 02222   7.1885  53.4429 0161739 152.9344  53.1963  1.06721208123832
Epoch: 2024-10-11T18:08Z
Definitive object data (Epoch: 2024-10-11T18:08:11.573Z)
Latitude-3.31946°
Longitude-31.99871°
Altitude33,684.13 km
Speed3.169 km/s
True Right ascension17h 23m 29s
True Declination-3° 18' 57"
Sunlit
Object was in daylight at TLE epoch
Predictive object data (real-time)
Latitude-6.35554°
Longitude2.7089°
Altitude34,053.726 km
Speed3.141 km/s
Apparent Right ascension20h 09m 28s
Apparent Declination-11° 44' 32"
Sunlit
Object is in daylight
Predictive observer data (real-time)
Local Sidereal Time13:13:06
Azimuth90.188° ESE
Elevation-18.266°
Doppler factor1
Orbital elements
Apogee34,725.578 km
Perigee33,417.126 km
Semi-major axis40,449.489 km
Eccentricity0.0161739
Inclination7.1885°
RAAN53.4429°
Arg. of periapsis152.9344°
True anomaly54.69831°
Mean anomaly53.1963°
Eccentric anomaly53.94549°
Mean motion0.26679 °/min
BSTARUnknown
Period1349.36 mins
No data available

TITAN 3C TRANSTAGE R/B Visibility forecast

Observer location: 39.9160978°, -105.1181434

TITAN 3C TRANSTAGE R/B is not visible in the next 10 days
Span
Click to sort rows by Start time (UTC) header in descending order
Start Az.
Max El. time (UTC)
Max El. Az.
Max El.
End time (UTC)
End Az.